Wetterdaten: aktuell Mittwoch, 26.02.2020 09:45
Datum Zeit Temp. A. Feuchte A. Luftdruck Regen Wind Richtung Richtung Sonnenschein UV Solar Taupunkt Windchill Windben
26.02.2020 09:45 4,6 C 96 % 989,2 hPa 0,0 l/m 0,0 km/h (0 Bft) - - 0 60 min 0,0 UV-I 198 W/m 4,0 C 4,6 C 0,0 km/h (0 Bft)
26.02.2020 08:45 2,1 C 96 % 988,8 hPa 0,2 l/m 0,0 km/h (0 Bft) - - 0 15 min 0,0 UV-I 117 W/m 1,5 C 2,1 C 0,0 km/h (0 Bft)
26.02.2020 07:45 0,4 C 95 % 988,2 hPa 0,0 l/m 0,0 km/h (0 Bft) - - 0 0 min 0,0 UV-I 16 W/m -0,3 C 0,4 C 0,0 km/h (0 Bft)
26.02.2020 06:45 1,1 C 95 % 987,6 hPa 0,0 l/m 0,0 km/h (0 Bft) - - 0 0 min 0,0 UV-I 0 W/m 0,4 C 1,1 C 0,0 km/h (0 Bft)
26.02.2020 05:45 2,0 C 95 % 987,7 hPa 0,0 l/m 0,0 km/h (0 Bft) - - 0 0 min 0,0 UV-I 0 W/m 1,3 C 2,0 C 0,0 km/h (0 Bft)
26.02.2020 04:45 1,9 C 95 % 987,4 hPa 0,2 l/m 0,0 km/h (0 Bft) - - 0 0 min 0,0 UV-I 0 W/m 1,2 C 1,9 C 0,0 km/h (0 Bft)
26.02.2020 03:45 2,1 C 95 % 987,4 hPa 0,0 l/m 0,0 km/h (0 Bft) - - 0 0 min 0,0 UV-I 0 W/m 1,4 C 2,1 C 0,0 km/h (0 Bft)
26.02.2020 02:45 1,8 C 95 % 987,6 hPa 0,0 l/m 0,0 km/h (0 Bft) - - 0 0 min 0,0 UV-I 0 W/m 1,1 C 1,8 C 0,0 km/h (0 Bft)
26.02.2020 01:45 1,8 C 94 % 987,7 hPa 0,0 l/m 0,0 km/h (0 Bft) - - 0 0 min 0,0 UV-I 0 W/m 0,9 C 1,8 C 0,0 km/h (0 Bft)
26.02.2020 00:45 2,3 C 94 % 987,6 hPa 0,0 l/m 0,0 km/h (0 Bft) - - 0 0 min 0,0 UV-I 0 W/m 1,4 C 2,3 C 0,0 km/h (0 Bft)
25.02.2020 23:45 2,5 C 94 % 987,5 hPa 0,0 l/m 0,0 km/h (0 Bft) - - 0 0 min 0,0 UV-I 0 W/m 1,6 C 2,5 C 0,0 km/h (0 Bft)
25.02.2020 22:45 2,7 C 94 % 987,8 hPa 0,0 l/m 0,0 km/h (0 Bft) - - 0 0 min 0,0 UV-I 0 W/m 1,8 C 2,7 C 0,0 km/h (0 Bft)
25.02.2020 21:45 3,2 C 93 % 987,9 hPa 0,2 l/m 0,0 km/h (0 Bft) - - 0 0 min 0,0 UV-I 0 W/m 2,2 C 3,2 C 0,0 km/h (0 Bft)
25.02.2020 20:45 3,3 C 93 % 988,0 hPa 0,2 l/m 0,0 km/h (0 Bft) - - 0 0 min 0,0 UV-I 0 W/m 2,3 C 3,3 C 0,0 km/h (0 Bft)
25.02.2020 19:45 4,0 C 92 % 988,1 hPa 0,2 l/m 0,0 km/h (0 Bft) - - 0 0 min 0,0 UV-I 0 W/m 2,8 C 4,0 C 0,0 km/h (0 Bft)
25.02.2020 18:45 4,2 C 89 % 987,9 hPa 0,0 l/m 0,0 km/h (0 Bft) - - 0 0 min 0,0 UV-I 0 W/m 2,6 C 4,2 C 0,0 km/h (0 Bft)
25.02.2020 17:45 4,8 C 88 % 987,0 hPa 0,0 l/m 0,0 km/h (0 Bft) - - 0 0 min 0,0 UV-I 0 W/m 3,0 C 4,8 C 0,0 km/h (0 Bft)
25.02.2020 16:45 5,5 C 86 % 986,7 hPa 0,0 l/m 0,0 km/h (0 Bft) - - 0 10 min 0,0 UV-I 40 W/m 3,3 C 5,5 C 0,0 km/h (0 Bft)
25.02.2020 15:45 5,9 C 86 % 986,3 hPa 0,0 l/m 0,0 km/h (0 Bft) - - 0 10 min 0,0 UV-I 108 W/m 3,7 C 5,9 C 0,0 km/h (0 Bft)
25.02.2020 14:45 5,7 C 90 % 985,8 hPa 0,4 l/m 0,0 km/h (0 Bft) - - 0 5 min 0,0 UV-I 155 W/m 4,2 C 5,7 C 0,0 km/h (0 Bft)
25.02.2020 13:45 6,2 C 87 % 985,7 hPa 0,0 l/m 0,0 km/h (0 Bft) - - 0 0 min 0,0 UV-I 158 W/m 4,2 C 6,2 C 0,0 km/h (0 Bft)
25.02.2020 12:45 6,2 C 90 % 986,0 hPa 0,0 l/m 0,0 km/h (0 Bft) - - 0 0 min 0,5 UV-I 166 W/m 4,7 C 6,2 C 0,0 km/h (0 Bft)
25.02.2020 11:45 5,3 C 92 % 986,7 hPa 0,6 l/m 0,0 km/h (0 Bft) - - 0 0 min 0,4 UV-I 190 W/m 4,1 C 5,3 C 0,0 km/h (0 Bft)
25.02.2020 10:45 5,8 C 89 % 987,4 hPa 0,8 l/m 0,0 km/h (0 Bft) - - 0 15 min 0,0 UV-I 64 W/m 4,1 C 5,8 C 0,0 km/h (0 Bft)
25.02.2020 10:00 5,7 C 89 % 987,9 hPa 0,0 l/m 0,0 km/h (0 Bft) - - 0 0 min 0,0 UV-I 219 W/m 4,0 C 5,7 C 0,0 km/h (0 Bft)
_ Min-Zeit 07:35 16:00 14:15 - 10:00 - - - - - 07:35 07:35 10:00
Minimum _ 0,4 C 85 % 985,4 hPa - 0,0 km/h (0 Bft) - - - - - -0,3 C 0,4 C 0,0 km/h (0 Bft)
_ Max-Zeit 10:20 08:25 09:40 10:45 10:00 - - 10:00 12:15 10:15 12:40 10:20 10:30
Maximum _ 6,7 C 96 % 989,2 hPa 0,4 l/m 0,0 km/h
- - (0 Bft)
- - 5 min 0,6 UV-I 328 W/m 4,9 C 6,7 C 1,6 km/h
S (1 Bft)
Durchschnitt _ 3,7 C 92 % 987,4 hPa #2,8 l/m 0,0 km/h (0 Bft) - - - #1:15 h 0,0 UV-I 101 W/m 2,5 C 3,7 C 0,0 km/h (0 Bft)